,,,PA_Meas_PMT16A,,PR_Meas_QMR101_102,,RH_Meas_QMH101,,SR_Meas_QMS101,,TA_Meas_QMH101,,GenWind,,GenWind,
date,time,status,PA,status,PR,status,RH,status,SR,status,TA,status,DirAvg,status,SpdAvg,
2011-10-26, 00:00:05,VALID,1003.5,VALID,0,VALID,95.6662,VALID,0.0815089,VALID,23.8575,VALID,2,VALID,0.130859,
2011-10-26, 00:01:05,VALID,1003.49,VALID,0,VALID,95.628,VALID,0.0815089,VALID,23.8362,VALID,2,VALID,0,
2011-10-26, 00:02:05,VALID,1003.47,VALID,0,VALID,95.6051,VALID,0,VALID,23.8556,VALID,2,VALID,0,
2011-10-26, 00:03:05,VALID,1003.48,VALID,0,VALID,95.6051,VALID,0.0815089,VALID,23.8769,VALID,2,VALID,0,
2011-10-26, 00:04:05,VALID,1003.45,VALID,0,VALID,95.5975,VALID,0.0815089,VALID,23.9159,VALID,2,VALID,0,
2011-10-26, 00:05:05,VALID,1003.46,VALID,0,VALID,95.5594,VALID,0,VALID,23.8964,VALID,2,VALID,0.181641,
2011-10-26, 00:06:05,VALID,1003.47,VALID,0,VALID,95.5746,VALID,0.0815089,VALID,23.8946,VALID,2,VALID,0,
2011-10-26, 00:07:05,VALID,1003.47,VALID,0,VALID,95.5365,VALID,0.0815089,VALID,23.8946,VALID,2,VALID,0.187891,
2011-10-26, 00:08:05,VALID,1003.47,VALID,0,VALID,95.4907,VALID,0.0815089,VALID,23.9159,VALID,2,VALID,0.287891,
2011-10-26, 00:09:05,VALID,1003.48,VALID,0,VALID,95.4907,VALID,0.0815089,VALID,23.8946,VALID,2,VALID,0.304688,
2011-10-26, 00:10:05,VALID,1003.5,VALID,0,VALID,95.4678,VALID,0.0815089,VALID,23.914,VALID,2,VALID,0.153906,
2011-10-26, 00:11:05,VALID,1003.47,VALID,0,VALID,95.4831,VALID,0.0815089,VALID,23.914,VALID,2,VALID,0.324609,
2011-10-26, 00:12:05,VALID,1003.47,VALID,0,VALID,95.5441,VALID,0.0815089,VALID,23.9335,VALID,2,VALID,0.447266,
2011-10-26, 00:13:05,VALID,1003.47,VALID,0,VALID,95.5594,VALID,0.0815089,VALID,23.9724,VALID,2,VALID,0.378125,
2011-10-26, 00:14:05,VALID,1003.43,VALID,0,VALID,95.506,VALID,0.0815089,VALID,23.9742,VALID,2,VALID,0.323828,
2011-10-26, 00:15:05,VALID,1003.45,VALID,0,VALID,95.506,VALID,0.0815089,VALID,23.9955,VALID,2,VALID,0.242188,
2011-10-26, 00:16:05,VALID,1003.41,VALID,0,VALID,95.4831,VALID,0.0815089,VALID,23.9937,VALID,2,VALID,0.0503906,
2011-10-26, 00:17:05,VALID,1003.42,VALID,0,VALID,95.4678,VALID,0,VALID,23.9937,VALID,2,VALID,0.179297,
2011-10-26, 00:18:05,VALID,1003.43,VALID,0,VALID,95.4297,VALID,0.0815089,VALID,23.9742,VALID,2,VALID,0.321484,
2011-10-26, 00:19:05,VALID,1003.38,VALID,0,VALID,95.4068,VALID,0,VALID,23.9724,VALID,2,VALID,0.14375,
2011-10-26, 00:20:05,VALID,1003.39,VALID,0,VALID,95.3915,VALID,0,VALID,23.9937,VALID,2,VALID,0.0550781,
2011-10-26, 00:21:05,VALID,1003.37,VALID,0,VALID,95.3839,VALID,0,VALID,23.9742,VALID,2,VALID,0.0335938,
2011-10-26, 00:22:05,VALID,1003.37,VALID,0,VALID,95.3839,VALID,0,VALID,23.9724,VALID,2,VALID,0.1625,
2011-10-26, 00:23:05,VALID,1003.35,VALID,0,VALID,95.3991,VALID,0,VALID,23.9937,VALID,2,VALID,0.23125,
2011-10-26, 00:24:05,VALID,1003.36,VALID,0,VALID,95.361,VALID,0,VALID,23.9937,VALID,2,VALID,0.0972656,
2011-10-26, 00:25:05,VALID,1003.37,VALID,0,VALID,95.3457,VALID,0,VALID,23.9937,VALID,2,VALID,0.233984,
2011-10-26, 00:26:05,VALID,1003.36,VALID,0,VALID,95.2771,VALID,0,VALID,23.9955,VALID,2,VALID,0.221875,
2011-10-26, 00:27:05,VALID,1003.35,VALID,0,VALID,95.3,VALID,0.0815089,VALID,23.9742,VALID,2,VALID,0.180469,
2011-10-26, 00:28:05,VALID,1003.36,VALID,0,VALID,95.2847,VALID,0,VALID,23.9955,VALID,2,VALID,0.114063,
2011-10-26, 00:29:05,VALID,1003.34,VALID,0,VALID,95.2466,VALID,0,VALID,23.9335,VALID,2,VALID,0,
2011-10-26, 00:30:05,VALID,1003.35,VALID,0,VALID,95.2389,VALID,0,VALID,23.9548,VALID,2,VALID,0,
2011-10-26, 00:31:05,VALID,1003.3,VALID,0,VALID,95.2923,VALID,0.0815089,VALID,23.9335,VALID,2,VALID,0,
2011-10-26, 00:32:05,VALID,1003.3,VALID,0,VALID,95.2771,VALID,0.0815089,VALID,23.9548,VALID,2,VALID,0.333594,
2011-10-26, 00:33:05,VALID,1003.28,VALID,0,VALID,95.2313,VALID,0,VALID,23.9122,VALID,2,VALID,0.390234,
2011-10-26, 00:34:05,VALID,1003.24,VALID,0,VALID,95.1703,VALID,0,VALID,23.914,VALID,2,VALID,0.428125,
2011-10-26, 00:35:05,VALID,1003.22,VALID,0,VALID,95.2237,VALID,0,VALID,23.9159,VALID,2,VALID,0.378906,
2011-10-26, 00:36:05,VALID,1003.23,VALID,0,VALID,95.2389,VALID,0,VALID,23.9353,VALID,2,VALID,0.577344,
2011-10-26, 00:37:05,VALID,1003.19,VALID,0,VALID,95.3305,VALID,0,VALID,23.9353,VALID,2,VALID,0.378516,
2011-10-26, 00:38:05,VALID,1003.17,VALID,0,VALID,95.2542,VALID,0,VALID,23.8946,VALID,2,VALID,0.361719,
2011-10-26, 00:39:05,VALID,1003.16,VALID,0,VALID,95.1855,VALID,0,VALID,23.9159,VALID,2,VALID,0.323828,
2011-10-26, 00:40:05,VALID,1003.12,VALID,0,VALID,95.2618,VALID,0,VALID,23.8964,VALID,2,VALID,0.253516,
2011-10-26, 00:41:05,VALID,1003.13,VALID,0,VALID,95.3305,VALID,0,VALID,23.8946,VALID,2,VALID,0.213672,
2011-10-26, 00:42:05,VALID,1003.14,VALID,0,VALID,95.3763,VALID,0.0815089,VALID,23.9353,VALID,2,VALID,0,
2011-10-26, 00:43:05,VALID,1003.08,VALID,0,VALID,95.422,VALID,0,VALID,23.9159,VALID,2,VALID,0,
2011-10-26, 00:44:05,VALID,1003.08,VALID,0,VALID,95.4754,VALID,0,VALID,23.9353,VALID,2,VALID,0,
2011-10-26, 00:45:05,VALID,1003.08,VALID,0,VALID,95.5136,VALID,0,VALID,23.9566,VALID,2,VALID,0.185937,
2011-10-26, 00:46:05,VALID,1003.03,VALID,0,VALID,95.4983,VALID,0,VALID,23.9335,VALID,2,VALID,0.233594,
2011-10-26, 00:47:05,VALID,1003.03,VALID,0,VALID,95.4297,VALID,0,VALID,23.9548,VALID,2,VALID,0.327734,
2011-10-26, 00:48:05,VALID,1003.02,VALID,0,VALID,95.3991,VALID,0,VALID,23.9353,VALID,2,VALID,0.479297,
2011-10-26, 00:49:05,VALID,1002.99,VALID,0,VALID,95.3763,VALID,0,VALID,23.9159,VALID,2,VALID,0.519531,
2011-10-26, 00:50:05,VALID,1003,VALID,0,VALID,95.3305,VALID,0,VALID,23.8964,VALID,2,VALID,0.399219,
2011-10-26, 00:51:05,VALID,1002.98,VALID,0,VALID,95.3457,VALID,0,VALID,23.8964,VALID,2,VALID,0.463281,
2011-10-26, 00:52:05,VALID,1002.95,VALID,0,VALID,95.3381,VALID,0,VALID,23.8556,VALID,2,VALID,0.382031,
2011-10-26, 00:53:05,VALID,1002.93,VALID,0,VALID,95.4068,VALID,0,VALID,23.8575,VALID,2,VALID,0.328906,
2011-10-26, 00:54:05,VALID,1002.93,VALID,0,VALID,95.4144,VALID,0,VALID,23.8362,VALID,2,VALID,0.357812,
2011-10-26, 00:55:05,VALID,1002.92,VALID,0,VALID,95.4373,VALID,0,VALID,23.8575,VALID,2,VALID,0.377734,
2011-10-26, 00:56:05,VALID,1002.91,VALID,0,VALID,95.4754,VALID,0,VALID,23.8362,VALID,2,VALID,0.480078,
2011-10-26, 00:57:05,VALID,1002.89,VALID,0,VALID,95.4678,VALID,0,VALID,23.8575,VALID,2,VALID,0.496875,
2011-10-26, 00:58:05,VALID,1002.88,VALID,0,VALID,95.4678,VALID,0,VALID,23.8575,VALID,2,VALID,0.433594,
2011-10-26, 00:59:05,VALID,1002.8,VALID,0,VALID,95.4297,VALID,0,VALID,23.838,VALID,2,VALID,0.383594,
2011-10-26, 01:00:05,VALID,1002.76,VALID,0,VALID,95.3763,VALID,0,VALID,23.8185,VALID,2,VALID,0.491797,
2011-10-26, 01:01:05,VALID,1002.76,VALID,0,VALID,95.4068,VALID,0.0815089,VALID,23.8185,VALID,2,VALID,0.413672,
2011-10-26, 01:02:05,VALID,1002.77,VALID,0,VALID,95.3839,VALID,0.0815089,VALID,23.7991,VALID,2,VALID,0.457812,
2011-10-26, 01:03:05,VALID,1002.76,VALID,0,VALID,95.3839,VALID,0,VALID,23.7601,VALID,2,VALID,0.478125,
2011-10-26, 01:04:05,VALID,1002.73,VALID,0,VALID,95.3686,VALID,0.0815089,VALID,23.7389,VALID,2,VALID,0.469531,
2011-10-26, 01:05:05,VALID,1002.73,VALID,0,VALID,95.3534,VALID,0,VALID,23.7194,VALID,2,VALID,0.379687,
2011-10-26, 01:06:05,VALID,1002.74,VALID,0,VALID,95.3305,VALID,0,VALID,23.7212,VALID,2,VALID,0.511328,
2011-10-26, 01:07:05,VALID,1002.71,VALID,0,VALID,95.3839,VALID,0,VALID,23.7017,VALID,2,VALID,0.436328,
2011-10-26, 01:08:05,VALID,1002.72,VALID,0,VALID,95.4297,VALID,0,VALID,23.7017,VALID,2,VALID,0.348047,
2011-10-26, 01:09:05,VALID,1002.7,VALID,0,VALID,95.4831,VALID,0,VALID,23.7017,VALID,2,VALID,0.242969,
2011-10-26, 01:10:05,VALID,1002.7,VALID,0,VALID,95.5365,VALID,0,VALID,23.7,VALID,2,VALID,0.0375,
2011-10-26, 01:11:05,VALID,1002.72,VALID,0,VALID,95.5517,VALID,0,VALID,23.7407,VALID,2,VALID,0,
2011-10-26, 01:12:05,VALID,1002.71,VALID,0,VALID,95.5975,VALID,0,VALID,23.7407,VALID,2,VALID,0,
2011-10-26, 01:13:05,VALID,1002.69,VALID,0,VALID,95.5746,VALID,0.0815089,VALID,23.7407,VALID,2,VALID,0,
2011-10-26, 01:14:05,VALID,1002.7,VALID,0,VALID,95.5212,VALID,0,VALID,23.7407,VALID,2,VALID,0,
2011-10-26, 01:15:05,VALID,1002.69,VALID,0,VALID,95.5136,VALID,0,VALID,23.7212,VALID,2,VALID,0,
2011-10-26, 01:16:04,VALID,1002.66,VALID,0,VALID,95.5136,VALID,0,VALID,23.7,VALID,2,VALID,0,
2011-10-26, 01:17:04,VALID,1002.65,VALID,0,VALID,95.4526,VALID,0,VALID,23.7017,VALID,2,VALID,0.136328,
2011-10-26, 01:18:04,VALID,1002.64,VALID,0,VALID,95.422,VALID,0.0815089,VALID,23.6823,VALID,2,VALID,0.217578,
2011-10-26, 01:19:04,VALID,1002.61,VALID,0,VALID,95.4678,VALID,0,VALID,23.6823,VALID,2,VALID,0.305078,
2011-10-26, 01:20:04,VALID,1002.61,VALID,0,VALID,95.4754,VALID,0.0815089,VALID,23.661,VALID,2,VALID,0.369141,
2011-10-26, 01:21:04,VALID,1002.58,VALID,0,VALID,95.4907,VALID,0,VALID,23.6823,VALID,2,VALID,0.268359,
2011-10-26, 01:22:04,VALID,1002.56,VALID,0,VALID,95.4754,VALID,0,VALID,23.6416,VALID,2,VALID,0.290625,
2011-10-26, 01:23:04,VALID,1002.52,VALID,0,VALID,95.4831,VALID,0,VALID,23.6416,VALID,2,VALID,0.246875,
2011-10-26, 01:24:04,VALID,1002.54,VALID,0,VALID,95.5288,VALID,0,VALID,23.6628,VALID,2,VALID,0.0222656,
2011-10-26, 01:25:04,VALID,1002.51,VALID,0,VALID,95.5746,VALID,0,VALID,23.6823,VALID,2,VALID,0,
2011-10-26, 01:26:04,VALID,1002.53,VALID,0,VALID,95.6433,VALID,0,VALID,23.661,VALID,2,VALID,0,
2011-10-26, 01:27:04,VALID,1002.53,VALID,0,VALID,95.6814,VALID,0.0815089,VALID,23.6805,VALID,2,VALID,0,
2011-10-26, 01:28:04,VALID,1002.52,VALID,0,VALID,95.8721,VALID,0,VALID,23.7407,VALID,2,VALID,0.214844,
2011-10-26, 01:29:04,VALID,1002.5,VALID,0,VALID,95.7501,VALID,0,VALID,23.7389,VALID,2,VALID,0.419531,
2011-10-26, 01:30:04,VALID,1002.51,VALID,0,VALID,95.834,VALID,0,VALID,23.7371,VALID,2,VALID,0.207813,
2011-10-26, 01:31:04,VALID,1002.49,VALID,0,VALID,95.6662,VALID,0,VALID,23.7583,VALID,2,VALID,0.219922,
2011-10-26, 01:32:04,VALID,1002.52,VALID,0,VALID,95.5517,VALID,0,VALID,23.7407,VALID,2,VALID,0.215625,
2011-10-26, 01:33:04,VALID,1002.54,VALID,0,VALID,95.5746,VALID,0,VALID,23.7194,VALID,2,VALID,0.201172,
2011-10-26, 01:34:04,VALID,1002.5,VALID,0,VALID,95.5899,VALID,0.0815089,VALID,23.7407,VALID,2,VALID,0.366016,
2011-10-26, 01:35:04,VALID,1002.48,VALID,0,VALID,95.5288,VALID,0,VALID,23.7212,VALID,2,VALID,0.377734,
2011-10-26, 01:36:04,VALID,1002.47,VALID,0,VALID,95.4373,VALID,0,VALID,23.6416,VALID,2,VALID,0.385156,
2011-10-26, 01:37:04,VALID,1002.46,VALID,0,VALID,95.506,VALID,0,VALID,23.6628,VALID,2,VALID,0.332031,
2011-10-26, 01:38:04,VALID,1002.44,VALID,0,VALID,95.6204,VALID,0,VALID,23.6823,VALID,2,VALID,0.299219,
2011-10-26, 01:39:04,VALID,1002.45,VALID,0,VALID,95.5594,VALID,0,VALID,23.6628,VALID,2,VALID,0.430078,
2011-10-26, 01:40:04,VALID,1002.44,VALID,0,VALID,95.6128,VALID,0.0815089,VALID,23.6416,VALID,2,VALID,0.39375,
2011-10-26, 01:41:04,VALID,1002.42,VALID,0,VALID,95.6356,VALID,0,VALID,23.6628,VALID,2,VALID,0.410937,
2011-10-26, 01:42:04,VALID,1002.44,VALID,0,VALID,95.567,VALID,0,VALID,23.6628,VALID,2,VALID,0.393359,
2011-10-26, 01:43:04,VALID,1002.41,VALID,0,VALID,95.5517,VALID,0,VALID,23.6221,VALID,2,VALID,0.339063,
2011-10-26, 01:44:04,VALID,1002.41,VALID,0,VALID,95.5746,VALID,0,VALID,23.6434,VALID,2,VALID,0.326562,
2011-10-26, 01:45:04,VALID,1002.42,VALID,0,VALID,95.5746,VALID,0.0815089,VALID,23.6221,VALID,2,VALID,0.350391,
2011-10-26, 01:46:04,VALID,1002.44,VALID,0,VALID,95.6051,VALID,0,VALID,23.6239,VALID,2,VALID,0.353906,
2011-10-26, 01:47:04,VALID,1002.46,VALID,0,VALID,95.5899,VALID,0,VALID,23.6239,VALID,2,VALID,0.316016,
2011-10-26, 01:48:04,VALID,1002.46,VALID,0,VALID,95.6662,VALID,0,VALID,23.6434,VALID,2,VALID,0.328906,
2011-10-26, 01:49:04,VALID,1002.47,VALID,0,VALID,95.6814,VALID,0.0815089,VALID,23.6221,VALID,2,VALID,0.308594,
2011-10-26, 01:50:04,VALID,1002.46,VALID,0,VALID,95.6662,VALID,0,VALID,23.6221,VALID,2,VALID,0.229687,
2011-10-26, 01:51:04,VALID,1002.44,VALID,0,VALID,95.6814,VALID,0,VALID,23.6434,VALID,2,VALID,0.257422,
2011-10-26, 01:52:04,VALID,1002.46,VALID,0,VALID,95.7272,VALID,0,VALID,23.6221,VALID,2,VALID,0.223828,
2011-10-26, 01:53:04,VALID,1002.41,VALID,0,VALID,95.7424,VALID,0,VALID,23.6628,VALID,2,VALID,0.124219,
2011-10-26, 01:54:04,VALID,1002.39,VALID,0,VALID,95.7043,VALID,0,VALID,23.6628,VALID,2,VALID,0.132813,
2011-10-26, 01:55:04,VALID,1002.38,VALID,0,VALID,95.689,VALID,0.0815089,VALID,23.6203,VALID,2,VALID,0,
2011-10-26, 01:56:04,VALID,1002.36,VALID,0,VALID,95.6967,VALID,0,VALID,23.6628,VALID,2,VALID,0.253516,
2011-10-26, 01:57:04,VALID,1002.35,VALID,0,VALID,95.7119,VALID,0,VALID,23.6628,VALID,2,VALID,0.252734,
2011-10-26, 01:58:04,VALID,1002.34,VALID,0,VALID,95.6433,VALID,0,VALID,23.6434,VALID,2,VALID,0.0429688,
2011-10-26, 01:59:04,VALID,1002.34,VALID,0,VALID,95.5822,VALID,0,VALID,23.6239,VALID,2,VALID,0.191016,
2011-10-26, 02:00:04,VALID,1002.38,VALID,0,VALID,95.5288,VALID,0,VALID,23.6257,VALID,2,VALID,0.154687,
2011-10-26, 02:01:04,VALID,1002.41,VALID,0,VALID,95.5594,VALID,0,VALID,23.585,VALID,2,VALID,0.155859,
2011-10-26, 02:02:04,VALID,1002.38,VALID,0,VALID,95.6128,VALID,0,VALID,23.5832,VALID,2,VALID,0,
2011-10-26, 02:03:04,VALID,1002.37,VALID,0,VALID,95.5822,VALID,0,VALID,23.5637,VALID,2,VALID,0,
2011-10-26, 02:04:04,VALID,1002.33,VALID,0,VALID,95.5899,VALID,0,VALID,23.5637,VALID,2,VALID,0,
2011-10-26, 02:05:04,VALID,1002.35,VALID,0,VALID,95.6128,VALID,0,VALID,23.585,VALID,2,VALID,0,
2011-10-26, 02:06:04,VALID,1002.28,VALID,0,VALID,95.6433,VALID,0.0815089,VALID,23.5637,VALID,2,VALID,0,
2011-10-26, 02:07:04,VALID,1002.27,VALID,0,VALID,95.7119,VALID,0,VALID,23.585,VALID,2,VALID,0,
2011-10-26, 02:08:04,VALID,1002.27,VALID,0,VALID,95.7119,VALID,0,VALID,23.5637,VALID,2,VALID,0,
2011-10-26, 02:09:04,VALID,1002.28,VALID,0,VALID,95.8035,VALID,0,VALID,23.6239,VALID,2,VALID,0,
2011-10-26, 02:10:04,VALID,1002.27,VALID,0,VALID,95.8187,VALID,0.0815089,VALID,23.6026,VALID,2,VALID,0.261719,
2011-10-26, 02:11:04,VALID,1002.28,VALID,0,VALID,95.8035,VALID,0.0815089,VALID,23.6221,VALID,2,VALID,0.502344,
2011-10-26, 02:12:04,VALID,1002.26,VALID,0,VALID,95.6738,VALID,0,VALID,23.5832,VALID,2,VALID,0.544531,
2011-10-26, 02:13:04,VALID,1002.25,VALID,0,VALID,95.6967,VALID,0,VALID,23.585,VALID,2,VALID,0.501172,
2011-10-26, 02:14:04,VALID,1002.25,VALID,0,VALID,95.7043,VALID,0,VALID,23.6044,VALID,2,VALID,0.463672,
2011-10-26, 02:15:04,VALID,1002.19,VALID,0,VALID,95.773,VALID,0,VALID,23.585,VALID,2,VALID,0.542578,
2011-10-26, 02:16:04,VALID,1002.19,VALID,0,VALID,95.7959,VALID,0.0815089,VALID,23.6026,VALID,2,VALID,0.518359,
2011-10-26, 02:17:04,VALID,1002.2,VALID,0,VALID,95.7043,VALID,0,VALID,23.585,VALID,2,VALID,0.449219,
2011-10-26, 02:18:04,VALID,1002.21,VALID,0,VALID,95.6509,VALID,0,VALID,23.5637,VALID,2,VALID,0.495313,
2011-10-26, 02:19:04,VALID,1002.2,VALID,0,VALID,95.6051,VALID,0,VALID,23.546,VALID,2,VALID,0.358203,
2011-10-26, 02:20:04,VALID,1002.22,VALID,0,VALID,95.5975,VALID,0,VALID,23.4859,VALID,2,VALID,0.355078,
2011-10-26, 02:21:04,VALID,1002.24,VALID,0,VALID,95.689,VALID,0.0815089,VALID,23.5053,VALID,2,VALID,0.21875,
2011-10-26, 02:22:04,VALID,1002.24,VALID,0,VALID,95.8416,VALID,0,VALID,23.5443,VALID,2,VALID,0.391797,
2011-10-26, 02:23:04,VALID,1002.23,VALID,0,VALID,95.9027,VALID,0,VALID,23.6026,VALID,24,VALID,0.410156,
2011-10-26, 02:24:04,VALID,1002.2,VALID,0,VALID,95.9484,VALID,0.0815089,VALID,23.6239,VALID,24,VALID,0.189844,
2011-10-26, 02:25:04,VALID,1002.2,VALID,0,VALID,95.9561,VALID,0,VALID,23.6628,VALID,24,VALID,0.228516,
2011-10-26, 02:26:04,VALID,1002.19,VALID,0,VALID,96.0018,VALID,0,VALID,23.661,VALID,24,VALID,0.363281,
2011-10-26, 02:27:04,VALID,1002.17,VALID,0,VALID,95.9866,VALID,0,VALID,23.7212,VALID,24,VALID,0.232812,
2011-10-26, 02:28:04,VALID,1002.17,VALID,0,VALID,96.0247,VALID,0,VALID,23.7407,VALID,24,VALID,0.255859,
2011-10-26, 02:29:04,VALID,1002.14,VALID,0,VALID,96.0095,VALID,0,VALID,23.7601,VALID,24,VALID,0.5125,
2011-10-26, 02:30:04,VALID,1002.19,VALID,0,VALID,95.9103,VALID,0,VALID,23.7796,VALID,24,VALID,0.718359,
2011-10-26, 02:31:04,VALID,1002.21,VALID,0,VALID,95.6051,VALID,0,VALID,23.6823,VALID,24,VALID,0.748828,
2011-10-26, 02:32:04,VALID,1002.22,VALID,0,VALID,95.5594,VALID,0,VALID,23.6221,VALID,24,VALID,0.605469,
2011-10-26, 02:33:04,VALID,1002.2,VALID,0,VALID,95.8569,VALID,0,VALID,23.6823,VALID,24,VALID,0.559375,
2011-10-26, 02:34:04,VALID,1002.19,VALID,0,VALID,95.9408,VALID,0,VALID,23.7407,VALID,24,VALID,0.588281,
2011-10-26, 02:35:04,VALID,1002.2,VALID,0,VALID,95.9637,VALID,0.0815089,VALID,23.7796,VALID,24,VALID,0.479688,
2011-10-26, 02:36:04,VALID,1002.19,VALID,0,VALID,95.8569,VALID,0,VALID,23.7796,VALID,24,VALID,0.4625,
2011-10-26, 02:37:04,VALID,1002.21,VALID,0,VALID,95.7882,VALID,0,VALID,23.7601,VALID,24,VALID,0.572266,
2011-10-26, 02:38:04,VALID,1002.2,VALID,0,VALID,95.7348,VALID,0,VALID,23.7389,VALID,24,VALID,0.607031,
2011-10-26, 02:39:04,VALID,1002.2,VALID,0,VALID,95.6356,VALID,0,VALID,23.7212,VALID,24,VALID,0.452734,
2011-10-26, 02:40:04,VALID,1002.21,VALID,0,VALID,95.628,VALID,0,VALID,23.6805,VALID,24,VALID,0.414063,
2011-10-26, 02:41:04,VALID,1002.19,VALID,0,VALID,95.6662,VALID,0,VALID,23.7017,VALID,24,VALID,0.411328,
2011-10-26, 02:42:04,VALID,1002.21,VALID,0,VALID,95.6738,VALID,0,VALID,23.7017,VALID,24,VALID,0.308203,
2011-10-26, 02:43:04,VALID,1002.19,VALID,0,VALID,95.7424,VALID,0,VALID,23.7017,VALID,24,VALID,0.05625,
2011-10-26, 02:44:04,VALID,1002.19,VALID,0,VALID,95.7882,VALID,0.0815089,VALID,23.7212,VALID,24,VALID,0,
2011-10-26, 02:45:04,VALID,1002.2,VALID,0,VALID,95.7806,VALID,0.0815089,VALID,23.7407,VALID,24,VALID,0.173828,
2011-10-26, 02:46:04,VALID,1002.23,VALID,0,VALID,95.7348,VALID,0.0815089,VALID,23.7194,VALID,24,VALID,0,
2011-10-26, 02:47:04,VALID,1002.26,VALID,0,VALID,95.689,VALID,0,VALID,23.7017,VALID,24,VALID,0,
2011-10-26, 02:48:04,VALID,1002.24,VALID,0,VALID,95.7196,VALID,0,VALID,23.7017,VALID,24,VALID,0.214453,
2011-10-26, 02:49:04,VALID,1002.25,VALID,0,VALID,95.6356,VALID,0.0815089,VALID,23.6823,VALID,24,VALID,0.326172,
2011-10-26, 02:50:04,VALID,1002.28,VALID,0,VALID,95.6356,VALID,0,VALID,23.6628,VALID,24,VALID,0.430859,
2011-10-26, 02:51:04,VALID,1002.27,VALID,0,VALID,95.6967,VALID,0.0815089,VALID,23.6628,VALID,24,VALID,0.663672,
2011-10-26, 02:52:04,VALID,1002.27,VALID,0,VALID,95.7196,VALID,0,VALID,23.6221,VALID,24,VALID,0.773828,
2011-10-26, 02:53:04,VALID,1002.24,VALID,0,VALID,95.5365,VALID,0,VALID,23.585,VALID,24,VALID,0.526172,
2011-10-26, 02:54:04,VALID,1002.21,VALID,0,VALID,95.5212,VALID,0,VALID,23.5248,VALID,24,VALID,0.5625,
2011-10-26, 02:55:04,VALID,1002.2,VALID,0,VALID,95.5822,VALID,0.0815089,VALID,23.5443,VALID,24,VALID,0.41875,
2011-10-26, 02:56:04,VALID,1002.17,VALID,0,VALID,95.6204,VALID,0.0815089,VALID,23.546,VALID,24,VALID,0.484375,
2011-10-26, 02:57:04,VALID,1002.17,VALID,0,VALID,95.6967,VALID,0,VALID,23.5655,VALID,24,VALID,0.526172,
2011-10-26, 02:58:04,VALID,1002.19,VALID,0,VALID,95.6356,VALID,0,VALID,23.546,VALID,24,VALID,0.385547,
2011-10-26, 02:59:04,VALID,1002.16,VALID,0,VALID,95.5899,VALID,0,VALID,23.4859,VALID,24,VALID,0.4125,
2011-10-26, 03:00:04,VALID,1002.17,VALID,0,VALID,95.5822,VALID,0,VALID,23.4664,VALID,24,VALID,0.379687,
2011-10-26, 03:01:04,VALID,1002.18,VALID,0,VALID,95.628,VALID,0,VALID,23.447,VALID,24,VALID,0.414453,
2011-10-26, 03:02:04,VALID,1002.19,VALID,0,VALID,95.689,VALID,0,VALID,23.4682,VALID,24,VALID,0.332422,
2011-10-26, 03:03:04,VALID,1002.21,VALID,0,VALID,95.6738,VALID,0.0815089,VALID,23.4682,VALID,24,VALID,0.53125,
2011-10-26, 03:04:04,VALID,1002.18,VALID,0,VALID,95.7501,VALID,0.0815089,VALID,23.4664,VALID,24,VALID,0.455859,
2011-10-26, 03:05:04,VALID,1002.16,VALID,0,VALID,95.8645,VALID,0,VALID,23.4877,VALID,24,VALID,0.391406,
2011-10-26, 03:06:04,VALID,1002.16,VALID,0,VALID,95.895,VALID,0.0815089,VALID,23.546,VALID,24,VALID,0.339844,
2011-10-26, 03:07:04,VALID,1002.19,VALID,0,VALID,95.9713,VALID,0,VALID,23.5655,VALID,24,VALID,0.380469,
2011-10-26, 03:08:04,VALID,1002.18,VALID,0,VALID,95.9255,VALID,0,VALID,23.585,VALID,24,VALID,0.381641,
2011-10-26, 03:09:04,VALID,1002.19,VALID,0,VALID,95.9332,VALID,0,VALID,23.6257,VALID,24,VALID,0.433984,
2011-10-26, 03:10:04,VALID,1002.21,VALID,0,VALID,95.9637,VALID,0,VALID,23.6239,VALID,24,VALID,0.378125,
2011-10-26, 03:11:04,VALID,1002.16,VALID,0,VALID,95.8721,VALID,0,VALID,23.6239,VALID,24,VALID,0.436328,
2011-10-26, 03:12:04,VALID,1002.15,VALID,0,VALID,95.8416,VALID,0,VALID,23.6026,VALID,24,VALID,0.394922,
2011-10-26, 03:13:04,VALID,1002.1,VALID,0,VALID,95.7959,VALID,0,VALID,23.6239,VALID,24,VALID,0.440234,
2011-10-26, 03:14:04,VALID,1002.1,VALID,0,VALID,95.8416,VALID,0,VALID,23.6239,VALID,24,VALID,0.437109,
2011-10-26, 03:15:04,VALID,1002.08,VALID,0,VALID,95.8035,VALID,0,VALID,23.6026,VALID,24,VALID,0.504297,
2011-10-26, 03:16:04,VALID,1002.05,VALID,0,VALID,95.8111,VALID,0,VALID,23.6239,VALID,24,VALID,0.409375,
2011-10-26, 03:17:04,VALID,1002.07,VALID,0,VALID,95.8569,VALID,0,VALID,23.6221,VALID,24,VALID,0.430078,
2011-10-26, 03:18:04,VALID,1002.1,VALID,0,VALID,95.7501,VALID,0,VALID,23.6239,VALID,24,VALID,0.30625,
2011-10-26, 03:19:04,VALID,1002.11,VALID,0,VALID,95.689,VALID,0.0815089,VALID,23.5832,VALID,24,VALID,0.276563,
2011-10-26, 03:20:04,VALID,1002.11,VALID,0,VALID,95.6662,VALID,0,VALID,23.585,VALID,24,VALID,0.285937,
2011-10-26, 03:21:04,VALID,1002.09,VALID,0,VALID,95.6814,VALID,0,VALID,23.585,VALID,24,VALID,0.514453,
2011-10-26, 03:22:04,VALID,1002.1,VALID,0,VALID,95.7348,VALID,0,VALID,23.6044,VALID,24,VALID,0.428516,
2011-10-26, 03:23:04,VALID,1002.08,VALID,0,VALID,95.6356,VALID,0,VALID,23.5655,VALID,24,VALID,0.382422,
2011-10-26, 03:24:04,VALID,1002.05,VALID,0,VALID,95.5746,VALID,0.0815089,VALID,23.5655,VALID,24,VALID,0.225391,
2011-10-26, 03:25:04,VALID,1002.01,VALID,0,VALID,95.6051,VALID,0,VALID,23.546,VALID,24,VALID,0.217969,
2011-10-26, 03:26:04,VALID,1002,VALID,0,VALID,95.6051,VALID,0.0815089,VALID,23.5248,VALID,24,VALID,0.158984,
2011-10-26, 03:27:04,VALID,1002.01,VALID,0,VALID,95.6738,VALID,0.0815089,VALID,23.523,VALID,24,VALID,0.180469,
2011-10-26, 03:28:04,VALID,1002.02,VALID,0,VALID,95.6585,VALID,0,VALID,23.546,VALID,24,VALID,0.235547,
2011-10-26, 03:29:04,VALID,1002,VALID,0,VALID,95.6662,VALID,0.0815089,VALID,23.5655,VALID,24,VALID,0.326562,
2011-10-26, 03:30:04,VALID,1001.99,VALID,0,VALID,95.5594,VALID,0,VALID,23.5053,VALID,23,VALID,0.591016,
2011-10-26, 03:31:04,VALID,1002,VALID,0,VALID,95.7272,VALID,0.0815089,VALID,23.5248,VALID,16,VALID,0.659766,
2011-10-26, 03:32:04,VALID,1002.02,VALID,0,VALID,95.8187,VALID,0,VALID,23.5619,VALID,17,VALID,0.534375,
2011-10-26, 03:33:04,VALID,1002.05,VALID,0,VALID,95.9408,VALID,0,VALID,23.6434,VALID,16,VALID,0.741797,
2011-10-26, 03:34:04,VALID,1002.08,VALID,0,VALID,96.0476,VALID,0,VALID,23.7601,VALID,15,VALID,0.561328,
2011-10-26, 03:35:04,VALID,1002.08,VALID,0,VALID,96.0018,VALID,0.0815089,VALID,23.838,VALID,12,VALID,0.864062,
2011-10-26, 03:36:04,VALID,1002.08,VALID,0,VALID,95.9255,VALID,0.0815089,VALID,23.9159,VALID,10,VALID,0.988672,
2011-10-26, 03:37:04,VALID,1002.06,VALID,0,VALID,95.7348,VALID,0.0815089,VALID,23.9724,VALID,9,VALID,0.785156,
2011-10-26, 03:38:04,VALID,1002.11,VALID,0,VALID,95.4983,VALID,0.0815089,VALID,24.0326,VALID,9,VALID,0.867188,
2011-10-26, 03:39:04,VALID,1002.07,VALID,0,VALID,95.361,VALID,0.0815089,VALID,24.0892,VALID,9,VALID,0.521875,
2011-10-26, 03:40:04,VALID,1002.11,VALID,0,VALID,95.2008,VALID,0.0815089,VALID,24.1884,VALID,10,VALID,0.482031,
2011-10-26, 03:41:04,VALID,1002.11,VALID,0,VALID,94.9948,VALID,0,VALID,24.206,VALID,10,VALID,0.0527344,
2011-10-26, 03:42:04,VALID,1002.06,VALID,0,VALID,94.827,VALID,0,VALID,24.2468,VALID,10,VALID,0.177344,
2011-10-26, 03:43:04,VALID,1002.05,VALID,0,VALID,94.6363,VALID,0,VALID,24.206,VALID,9,VALID,0.158594,
2011-10-26, 03:44:04,VALID,1002.07,VALID,0,VALID,94.4761,VALID,0,VALID,24.2273,VALID,12,VALID,0.652344,
2011-10-26, 03:45:04,VALID,1002.03,VALID,0,VALID,94.415,VALID,0.0815089,VALID,24.1865,VALID,12,VALID,0.446875,